Saint Bonnet de Bellac- Haute Vienne - France
Donnes mto: vendredi, 13/01/2012
Date Horaire Temp. E. Hum. E. P.atmo. Pluie Vent Direction Direction Ensoleilleme Solaire P. de rose Temp au vent Rafales
13/01/2012 00:00 1,8 C 94 % 1030,3 hPa 0,0 mm 1,8 km/h (1 Bft) NE 45 0 min 0 W/m 0,9 C 1,8 C 1,8 km/h (1 Bft)
13/01/2012 00:10 1,8 C 94 % 1030,2 hPa 0,0 mm 2,9 km/h (1 Bft) E-NE 67 0 min 0 W/m 0,9 C 1,8 C 3,6 km/h (1 Bft)
13/01/2012 00:20 1,8 C 94 % 1030,3 hPa 0,0 mm 3,2 km/h (1 Bft) N-NE 22 0 min 0 W/m 0,9 C 1,8 C 3,2 km/h (1 Bft)
13/01/2012 00:30 1,8 C 94 % 1030,3 hPa 0,0 mm 2,5 km/h (1 Bft) E-NE 67 0 min 0 W/m 0,9 C 1,8 C 4,3 km/h (1 Bft)
13/01/2012 00:40 1,8 C 94 % 1030,2 hPa 0,0 mm 0,0 km/h (0 Bft) E-NE 67 0 min 0 W/m 0,9 C 1,8 C 0,0 km/h (0 Bft)
13/01/2012 00:50 1,8 C 94 % 1030,2 hPa 0,0 mm 1,1 km/h (1 Bft) E-NE 67 0 min 0 W/m 0,9 C 1,8 C 4,0 km/h (1 Bft)
13/01/2012 01:00 1,8 C 94 % 1030,1 hPa 0,0 mm 0,0 km/h (0 Bft) E-NE 67 0 min 0 W/m 0,9 C 1,8 C 0,0 km/h (0 Bft)
13/01/2012 01:10 1,8 C 94 % 1030,0 hPa 0,0 mm 0,0 km/h (0 Bft) NE 45 0 min 0 W/m 0,9 C 1,8 C 0,0 km/h (0 Bft)
13/01/2012 01:20 1,8 C 94 % 1030,0 hPa 0,0 mm 1,4 km/h (1 Bft) E-NE 67 0 min 0 W/m 0,9 C 1,8 C 1,4 km/h (1 Bft)
13/01/2012 01:30 1,8 C 94 % 1029,9 hPa 0,0 mm 0,0 km/h (0 Bft) E-NE 67 0 min 0 W/m 0,9 C 1,8 C 0,0 km/h (0 Bft)
13/01/2012 01:40 1,8 C 94 % 1029,8 hPa 0,0 mm 0,0 km/h (0 Bft) E-NE 67 0 min 0 W/m 0,9 C 1,8 C 0,0 km/h (0 Bft)
13/01/2012 01:50 1,8 C 94 % 1029,7 hPa 0,0 mm 0,0 km/h (0 Bft) E-NE 67 0 min 0 W/m 0,9 C 1,8 C 0,0 km/h (0 Bft)
13/01/2012 02:02 1,8 C 94 % 1029,5 hPa 0,0 mm 0,4 km/h (0 Bft) SE 135 0 min 0 W/m 0,9 C 1,8 C 3,2 km/h (1 Bft)
13/01/2012 02:10 1,7 C 94 % 1029,6 hPa 0,0 mm 1,4 km/h (1 Bft) E-SE 112 0 min 0 W/m 0,8 C 1,7 C 3,6 km/h (1 Bft)
13/01/2012 02:20 1,7 C 94 % 1029,5 hPa 0,0 mm 1,1 km/h (1 Bft) E-SE 112 0 min 0 W/m 0,8 C 1,7 C 1,1 km/h (1 Bft)
13/01/2012 02:30 1,7 C 94 % 1029,6 hPa 0,0 mm 0,7 km/h (0 Bft) E 90 0 min 0 W/m 0,8 C 1,7 C 0,7 km/h (0 Bft)
13/01/2012 02:40 1,8 C 94 % 1029,5 hPa 0,0 mm 0,0 km/h (0 Bft) E-NE 67 0 min 0 W/m 0,9 C 1,8 C 0,0 km/h (0 Bft)
13/01/2012 02:50 1,8 C 94 % 1029,4 hPa 0,0 mm 1,8 km/h (1 Bft) SE 135 0 min 0 W/m 0,9 C 1,8 C 4,3 km/h (1 Bft)
13/01/2012 03:00 1,8 C 94 % 1029,5 hPa 0,0 mm 0,0 km/h (0 Bft) E-SE 112 0 min 0 W/m 0,9 C 1,8 C 0,0 km/h (0 Bft)
13/01/2012 03:10 1,9 C 94 % 1029,6 hPa 0,0 mm 0,0 km/h (0 Bft) E-SE 112 0 min 0 W/m 1,0 C 1,9 C 0,0 km/h (0 Bft)
13/01/2012 03:20 2,0 C 94 % 1029,6 hPa 0,0 mm 0,0 km/h (0 Bft) E-SE 112 0 min 0 W/m 1,1 C 2,0 C 0,0 km/h (0 Bft)
13/01/2012 03:30 2,0 C 94 % 1029,6 hPa 0,0 mm 0,0 km/h (0 Bft) N-NE 22 0 min 0 W/m 1,1 C 2,0 C 0,0 km/h (0 Bft)
13/01/2012 03:40 2,1 C 94 % 1029,6 hPa 0,0 mm 0,0 km/h (0 Bft) N-NE 22 0 min 0 W/m 1,2 C 2,1 C 0,0 km/h (0 Bft)
13/01/2012 03:50 2,1 C 94 % 1029,5 hPa 0,0 mm 2,5 km/h (1 Bft) N-NE 22 0 min 0 W/m 1,2 C 2,1 C 3,6 km/h (1 Bft)
13/01/2012 04:00 2,1 C 94 % 1029,3 hPa 0,0 mm 0,0 km/h (0 Bft) N-NE 22 0 min 0 W/m 1,2 C 2,1 C 0,0 km/h (0 Bft)
13/01/2012 04:10 2,0 C 94 % 1029,3 hPa 0,0 mm 0,0 km/h (0 Bft) N 360 0 min 0 W/m 1,1 C 2,0 C 0,0 km/h (0 Bft)
13/01/2012 04:20 1,9 C 94 % 1029,2 hPa 0,0 mm 0,0 km/h (0 Bft) N 360 0 min 0 W/m 1,0 C 1,9 C 0,0 km/h (0 Bft)
13/01/2012 04:30 1,7 C 94 % 1029,2 hPa 0,0 mm 1,8 km/h (1 Bft) N-NE 22 0 min 0 W/m 0,8 C 1,7 C 4,0 km/h (1 Bft)
13/01/2012 04:40 1,6 C 94 % 1029,1 hPa 0,0 mm 0,4 km/h (0 Bft) N-NE 22 0 min 0 W/m 0,7 C 1,6 C 0,4 km/h (0 Bft)
13/01/2012 04:50 1,5 C 94 % 1029,1 hPa 0,0 mm 0,0 km/h (0 Bft) N-NE 22 0 min 0 W/m 0,6 C 1,5 C 0,0 km/h (0 Bft)
13/01/2012 05:00 1,4 C 94 % 1029,1 hPa 0,0 mm 0,7 km/h (0 Bft) N-NE 22 0 min 0 W/m 0,5 C 1,4 C 3,2 km/h (1 Bft)
13/01/2012 05:10 1,4 C 94 % 1029,0 hPa 0,0 mm 0,0 km/h (0 Bft) N-NE 22 0 min 0 W/m 0,5 C 1,4 C 3,2 km/h (1 Bft)
13/01/2012 05:20 1,4 C 94 % 1029,0 hPa 0,0 mm 0,0 km/h (0 Bft) N-NE 22 0 min 0 W/m 0,5 C 1,4 C 0,0 km/h (0 Bft)
13/01/2012 05:30 1,5 C 94 % 1028,9 hPa 0,0 mm 0,0 km/h (0 Bft) N-NE 22 0 min 0 W/m 0,6 C 1,5 C 0,0 km/h (0 Bft)
13/01/2012 05:40 1,6 C 94 % 1028,9 hPa 0,0 mm 0,4 km/h (0 Bft) N-NE 22 0 min 0 W/m 0,7 C 1,6 C 3,6 km/h (1 Bft)
13/01/2012 05:50 1,6 C 94 % 1028,9 hPa 0,0 mm 0,0 km/h (0 Bft) N-NE 22 0 min 0 W/m 0,7 C 1,6 C 0,0 km/h (0 Bft)
13/01/2012 06:00 1,7 C 94 % 1029,0 hPa 0,0 mm 0,0 km/h (0 Bft) N-NE 22 0 min 0 W/m 0,8 C 1,7 C 0,0 km/h (0 Bft)
13/01/2012 06:10 1,8 C 94 % 1028,9 hPa 0,0 mm 0,0 km/h (0 Bft) N-NE 22 0 min 0 W/m 0,9 C 1,8 C 0,0 km/h (0 Bft)
13/01/2012 06:20 1,8 C 94 % 1028,9 hPa 0,0 mm 0,0 km/h (0 Bft) N-NE 22 0 min 0 W/m 0,9 C 1,8 C 0,0 km/h (0 Bft)
13/01/2012 06:30 1,8 C 94 % 1028,8 hPa 0,0 mm 0,0 km/h (0 Bft) N-NE 22 0 min 0 W/m 0,9 C 1,8 C 0,0 km/h (0 Bft)
13/01/2012 06:40 1,9 C 94 % 1028,9 hPa 0,0 mm 0,0 km/h (0 Bft) N-NE 22 0 min 0 W/m 1,0 C 1,9 C 0,0 km/h (0 Bft)
13/01/2012 06:50 1,9 C 95 % 1028,9 hPa 0,0 mm 0,0 km/h (0 Bft) N-NE 22 0 min 0 W/m 1,2 C 1,9 C 0,0 km/h (0 Bft)
13/01/2012 07:00 2,0 C 95 % 1028,7 hPa 0,0 mm 0,0 km/h (0 Bft) N-NE 22 0 min 0 W/m 1,3 C 2,0 C 0,0 km/h (0 Bft)
13/01/2012 07:10 2,1 C 95 % 1028,7 hPa 0,0 mm 0,0 km/h (0 Bft) N-NE 22 0 min 0 W/m 1,4 C 2,1 C 0,0 km/h (0 Bft)
13/01/2012 07:20 2,1 C 95 % 1028,7 hPa 0,0 mm 0,0 km/h (0 Bft) N-NE 22 0 min 0 W/m 1,4 C 2,1 C 0,0 km/h (0 Bft)
13/01/2012 07:30 2,1 C 95 % 1028,6 hPa 0,0 mm 0,0 km/h (0 Bft) N-NE 22 0 min 0 W/m 1,4 C 2,1 C 0,0 km/h (0 Bft)
13/01/2012 07:40 2,1 C 95 % 1028,5 hPa 0,0 mm 0,0 km/h (0 Bft) N-NE 22 0 min 0 W/m 1,4 C 2,1 C 0,0 km/h (0 Bft)
13/01/2012 07:50 2,1 C 95 % 1028,3 hPa 0,0 mm 0,0 km/h (0 Bft) N-NE 22 0 min 0 W/m 1,4 C 2,1 C 0,0 km/h (0 Bft)
13/01/2012 08:00 2,2 C 95 % 1028,4 hPa 0,0 mm 0,0 km/h (0 Bft) N-NE 22 0 min 0 W/m 1,5 C 2,2 C 0,0 km/h (0 Bft)
13/01/2012 08:10 2,3 C 95 % 1028,4 hPa 0,0 mm 0,0 km/h (0 Bft) N-NE 22 0 min 0 W/m 1,6 C 2,3 C 0,0 km/h (0 Bft)
13/01/2012 08:20 2,3 C 95 % 1028,6 hPa 0,0 mm 1,1 km/h (1 Bft) NE 45 0 min 0 W/m 1,6 C 2,3 C 1,1 km/h (1 Bft)
13/01/2012 08:30 2,3 C 95 % 1028,5 hPa 0,0 mm 0,0 km/h (0 Bft) NE 45 0 min 0 W/m 1,6 C 2,3 C 0,0 km/h (0 Bft)
13/01/2012 08:40 2,4 C 95 % 1028,5 hPa 0,0 mm 0,0 km/h (0 Bft) NE 45 0 min 0 W/m 1,7 C 2,4 C 0,0 km/h (0 Bft)
13/01/2012 08:50 2,4 C 95 % 1028,6 hPa 0,0 mm 0,0 km/h (0 Bft) NE 45 2 min 0 W/m 1,7 C 2,4 C 0,0 km/h (0 Bft)
13/01/2012 09:00 2,4 C 95 % 1028,6 hPa 0,0 mm 0,0 km/h (0 Bft) NE 45 2 min 0 W/m 1,7 C 2,4 C 0,0 km/h (0 Bft)
13/01/2012 09:10 2,5 C 95 % 1028,7 hPa 0,0 mm 0,0 km/h (0 Bft) NE 45 2 min 0 W/m 1,8 C 2,5 C 0,0 km/h (0 Bft)
13/01/2012 09:20 2,5 C 95 % 1028,7 hPa 0,0 mm 0,0 km/h (0 Bft) NE 45 2 min 0 W/m 1,8 C 2,5 C 0,0 km/h (0 Bft)
13/01/2012 09:30 2,6 C 95 % 1028,8 hPa 0,0 mm 0,0 km/h (0 Bft) NE 45 2 min 0 W/m 1,9 C 2,6 C 0,0 km/h (0 Bft)
13/01/2012 09:40 2,8 C 95 % 1028,7 hPa 0,0 mm 0,0 km/h (0 Bft) NE 45 2 min 0 W/m 2,1 C 2,8 C 0,0 km/h (0 Bft)
13/01/2012 09:50 2,8 C 95 % 1028,6 hPa 0,0 mm 0,0 km/h (0 Bft) NE 45 2 min 0 W/m 2,1 C 2,8 C 0,0 km/h (0 Bft)
13/01/2012 10:00 2,9 C 95 % 1028,6 hPa 0,0 mm 0,0 km/h (0 Bft) NE 45 2 min 0 W/m 2,2 C 2,9 C 0,0 km/h (0 Bft)
13/01/2012 10:10 3,1 C 95 % 1028,6 hPa 0,0 mm 0,0 km/h (0 Bft) NE 45 2 min 0 W/m 2,4 C 3,1 C 0,0 km/h (0 Bft)
13/01/2012 10:20 3,4 C 95 % 1028,6 hPa 0,0 mm 0,0 km/h (0 Bft) NE 45 2 min 0 W/m 2,7 C 3,4 C 0,0 km/h (0 Bft)
13/01/2012 10:30 3,6 C 95 % 1028,4 hPa 0,0 mm 0,0 km/h (0 Bft) NE 45 2 min 0 W/m 2,9 C 3,6 C 0,0 km/h (0 Bft)
13/01/2012 10:40 3,9 C 96 % 1028,5 hPa 0,0 mm 0,0 km/h (0 Bft) NE 45 2 min 0 W/m 3,3 C 3,9 C 0,0 km/h (0 Bft)
13/01/2012 10:50 4,1 C 96 % 1028,6 hPa 0,0 mm 0,0 km/h (0 Bft) NE 45 2 min 0 W/m 3,5 C 4,1 C 0,0 km/h (0 Bft)
13/01/2012 11:00 4,3 C 95 % 1028,6 hPa 0,0 mm 0,0 km/h (0 Bft) NE 45 2 min 0 W/m 3,6 C 4,3 C 0,0 km/h (0 Bft)
13/01/2012 11:10 4,4 C 95 % 1028,7 hPa 0,0 mm 0,0 km/h (0 Bft) NE 45 2 min 0 W/m 3,7 C 4,4 C 0,0 km/h (0 Bft)
13/01/2012 11:20 4,6 C 95 % 1028,7 hPa 0,0 mm 0,0 km/h (0 Bft) N 360 2 min 0 W/m 3,9 C 4,6 C 0,0 km/h (0 Bft)
13/01/2012 11:30 4,9 C 95 % 1028,7 hPa 0,0 mm 0,0 km/h (0 Bft) NE 45 2 min 0 W/m 4,2 C 4,9 C 0,0 km/h (0 Bft)
13/01/2012 11:40 5,1 C 95 % 1028,6 hPa 0,0 mm 0,0 km/h (0 Bft) NE 45 2 min 0 W/m 4,4 C 5,1 C 0,0 km/h (0 Bft)
13/01/2012 11:50 5,4 C 95 % 1028,5 hPa 0,0 mm 0,0 km/h (0 Bft) NE 45 2 min 0 W/m 4,7 C 5,4 C 0,0 km/h (0 Bft)
13/01/2012 12:00 5,5 C 95 % 1028,6 hPa 0,0 mm 0,0 km/h (0 Bft) NE 45 2 min 0 W/m 4,8 C 5,5 C 0,0 km/h (0 Bft)
13/01/2012 12:10 5,7 C 95 % 1028,4 hPa 0,0 mm 1,1 km/h (1 Bft) NE 45 2 min 0 W/m 5,0 C 5,7 C 3,6 km/h (1 Bft)
13/01/2012 12:20 5,8 C 95 % 1028,2 hPa 0,0 mm 0,0 km/h (0 Bft) NE 45 2 min 0 W/m 5,1 C 5,8 C 2,9 km/h (1 Bft)
13/01/2012 12:30 6,0 C 95 % 1028,1 hPa 0,0 mm 0,0 km/h (0 Bft) NE 45 2 min 0 W/m 5,3 C 6,0 C 0,0 km/h (0 Bft)
13/01/2012 12:40 6,1 C 95 % 1028,0 hPa 0,0 mm 0,0 km/h (0 Bft) NE 45 2 min 0 W/m 5,4 C 6,1 C 0,0 km/h (0 Bft)
13/01/2012 12:50 6,2 C 95 % 1027,9 hPa 0,0 mm 0,0 km/h (0 Bft) E-NE 67 2 min 0 W/m 5,5 C 6,2 C 0,0 km/h (0 Bft)
13/01/2012 13:00 6,3 C 95 % 1027,8 hPa 0,0 mm 0,4 km/h (0 Bft) NE 45 2 min 0 W/m 5,6 C 6,3 C 2,9 km/h (1 Bft)
13/01/2012 13:10 6,3 C 95 % 1027,6 hPa 0,0 mm 0,0 km/h (0 Bft) N-NE 22 2 min 0 W/m 5,6 C 6,3 C 0,0 km/h (0 Bft)
13/01/2012 13:20 6,3 C 95 % 1027,5 hPa 0,0 mm 0,0 km/h (0 Bft) N 360 2 min 0 W/m 5,6 C 6,3 C 0,0 km/h (0 Bft)
13/01/2012 13:30 6,4 C 95 % 1027,3 hPa 0,0 mm 0,0 km/h (0 Bft) N 360 2 min 0 W/m 5,7 C 6,4 C 0,0 km/h (0 Bft)
13/01/2012 13:40 6,4 C 95 % 1027,3 hPa 0,0 mm 0,7 km/h (0 Bft) N 360 2 min 0 W/m 5,7 C 6,4 C 3,6 km/h (1 Bft)
13/01/2012 13:50 6,4 C 95 % 1027,2 hPa 0,0 mm 0,0 km/h (0 Bft) N-NE 22 2 min 0 W/m 5,7 C 6,4 C 0,0 km/h (0 Bft)
13/01/2012 14:00 6,4 C 95 % 1027,0 hPa 0,0 mm 0,7 km/h (0 Bft) NE 45 2 min 0 W/m 5,7 C 6,4 C 3,2 km/h (1 Bft)
13/01/2012 14:10 6,4 C 95 % 1026,9 hPa 0,0 mm 0,7 km/h (0 Bft) N-NE 22 2 min 0 W/m 5,7 C 6,4 C 0,7 km/h (0 Bft)
13/01/2012 14:20 6,4 C 95 % 1026,7 hPa 0,0 mm 0,4 km/h (0 Bft) N-NE 22 2 min 0 W/m 5,7 C 6,4 C 0,4 km/h (0 Bft)
13/01/2012 14:30 6,4 C 95 % 1026,6 hPa 0,0 mm 0,0 km/h (0 Bft) NE 45 2 min 0 W/m 5,7 C 6,4 C 0,0 km/h (0 Bft)
13/01/2012 14:40 6,4 C 95 % 1026,5 hPa 0,0 mm 0,7 km/h (0 Bft) N 360 2 min 0 W/m 5,7 C 6,4 C 4,0 km/h (1 Bft)
13/01/2012 14:50 6,4 C 94 % 1026,5 hPa 0,0 mm 2,2 km/h (1 Bft) NE 45 2 min 0 W/m 5,5 C 6,4 C 4,0 km/h (1 Bft)
13/01/2012 15:00 6,3 C 94 % 1026,5 hPa 0,0 mm 1,8 km/h (1 Bft) N-NE 22 2 min 0 W/m 5,4 C 6,3 C 4,3 km/h (1 Bft)
13/01/2012 15:10 6,3 C 94 % 1026,4 hPa 0,0 mm 1,1 km/h (1 Bft) E-NE 67 2 min 0 W/m 5,4 C 6,3 C 1,1 km/h (1 Bft)
13/01/2012 15:20 6,3 C 94 % 1026,4 hPa 0,0 mm 2,2 km/h (1 Bft) N-NE 22 2 min 0 W/m 5,4 C 6,3 C 4,0 km/h (1 Bft)
13/01/2012 15:30 6,3 C 94 % 1026,4 hPa 0,0 mm 1,8 km/h (1 Bft) N-NE 22 2 min 0 W/m 5,4 C 6,3 C 4,3 km/h (1 Bft)
13/01/2012 15:40 6,2 C 94 % 1026,4 hPa 0,0 mm 4,0 km/h (1 Bft) N-NE 22 2 min 0 W/m 5,3 C 6,2 C 8,6 km/h (2 Bft)
13/01/2012 15:50 6,1 C 94 % 1026,3 hPa 0,0 mm 5,0 km/h (1 Bft) E-NE 67 2 min 0 W/m 5,2 C 5,3 C 8,6 km/h (2 Bft)
13/01/2012 16:00 6,0 C 94 % 1026,3 hPa 0,0 mm 0,7 km/h (0 Bft) N-NE 22 2 min 0 W/m 5,1 C 6,0 C 4,0 km/h (1 Bft)
13/01/2012 16:10 6,0 C 94 % 1026,3 hPa 0,0 mm 4,7 km/h (1 Bft) N 360 2 min 0 W/m 5,1 C 5,3 C 7,9 km/h (2 Bft)
13/01/2012 16:20 5,8 C 94 % 1026,3 hPa 0,0 mm 7,6 km/h (2 Bft) N-NE 22 2 min 0 W/m 4,9 C 4,2 C 11,5 km/h (2 Bft)
13/01/2012 16:30 5,8 C 94 % 1026,2 hPa 0,0 mm 7,6 km/h (2 Bft) N 360 2 min 0 W/m 4,9 C 4,2 C 7,6 km/h (2 Bft)
13/01/2012 16:40 5,8 C 94 % 1026,2 hPa 0,0 mm 3,2 km/h (1 Bft) E-NE 67 2 min 0 W/m 4,9 C 5,8 C 3,6 km/h (1 Bft)
13/01/2012 16:50 5,8 C 94 % 1026,2 hPa 0,0 mm 2,5 km/h (1 Bft) E-NE 67 2 min 0 W/m 4,9 C 5,8 C 4,3 km/h (1 Bft)
13/01/2012 17:00 5,8 C 94 % 1026,3 hPa 0,0 mm 0,4 km/h (0 Bft) E-NE 67 2 min 0 W/m 4,9 C 5,8 C 1,4 km/h (1 Bft)
13/01/2012 17:10 5,8 C 94 % 1026,3 hPa 0,0 mm 2,9 km/h (1 Bft) NE 45 2 min 0 W/m 4,9 C 5,8 C 4,3 km/h (1 Bft)
13/01/2012 17:20 5,8 C 94 % 1026,5 hPa 0,0 mm 5,0 km/h (1 Bft) NE 45 2 min 0 W/m 4,9 C 5,0 C 11,9 km/h (2 Bft)
13/01/2012 17:30 5,8 C 94 % 1026,5 hPa 0,0 mm 2,9 km/h (1 Bft) NE 45 0 min 0 W/m 4,9 C 5,8 C 4,0 km/h (1 Bft)
13/01/2012 17:40 5,6 C 94 % 1026,5 hPa 0,0 mm 4,0 km/h (1 Bft) NE 45 0 min 0 W/m 4,7 C 5,6 C 4,0 km/h (1 Bft)
13/01/2012 17:50 5,6 C 94 % 1026,5 hPa 0,0 mm 2,9 km/h (1 Bft) NE 45 0 min 0 W/m 4,7 C 5,6 C 4,3 km/h (1 Bft)
13/01/2012 18:00 5,6 C 94 % 1026,5 hPa 0,0 mm 2,5 km/h (1 Bft) E-NE 67 0 min 0 W/m 4,7 C 5,6 C 6,8 km/h (2 Bft)
13/01/2012 18:10 5,5 C 93 % 1026,5 hPa 0,0 mm 2,5 km/h (1 Bft) N 360 0 min 0 W/m 4,5 C 5,5 C 2,5 km/h (1 Bft)
13/01/2012 18:20 5,4 C 93 % 1026,5 hPa 0,0 mm 7,2 km/h (2 Bft) NE 45 0 min 0 W/m 4,4 C 3,8 C 7,2 km/h (2 Bft)
13/01/2012 18:30 5,3 C 93 % 1026,6 hPa 0,0 mm 10,4 km/h (2 Bft) NE 45 0 min 0 W/m 4,3 C 2,9 C 10,8 km/h (2 Bft)
13/01/2012 18:40 5,3 C 93 % 1026,5 hPa 0,0 mm 8,6 km/h (2 Bft) NE 45 0 min 0 W/m 4,3 C 3,3 C 13,0 km/h (3 Bft)
13/01/2012 18:50 5,3 C 92 % 1026,6 hPa 0,0 mm 9,0 km/h (2 Bft) NE 45 0 min 0 W/m 4,1 C 3,2 C 10,8 km/h (2 Bft)
13/01/2012 19:00 5,2 C 92 % 1026,6 hPa 0,0 mm 6,5 km/h (2 Bft) NE 45 0 min 0 W/m 4,0 C 3,8 C 14,0 km/h (3 Bft)
13/01/2012 19:10 5,2 C 91 % 1026,6 hPa 0,0 mm 7,9 km/h (2 Bft) NE 45 0 min 0 W/m 3,9 C 3,4 C 9,0 km/h (2 Bft)
13/01/2012 19:20 5,1 C 91 % 1026,5 hPa 0,0 mm 5,0 km/h (1 Bft) NE 45 0 min 0 W/m 3,8 C 4,2 C 10,8 km/h (2 Bft)
13/01/2012 19:30 5,1 C 91 % 1026,4 hPa 0,0 mm 2,9 km/h (1 Bft) NE 45 0 min 0 W/m 3,8 C 5,1 C 4,0 km/h (1 Bft)
13/01/2012 19:40 4,9 C 91 % 1026,5 hPa 0,0 mm 1,1 km/h (1 Bft) NE 45 0 min 0 W/m 3,6 C 4,9 C 4,3 km/h (1 Bft)
13/01/2012 19:50 4,9 C 91 % 1026,5 hPa 0,0 mm 4,3 km/h (1 Bft) N-NE 22 0 min 0 W/m 3,6 C 4,9 C 4,3 km/h (1 Bft)
13/01/2012 20:00 4,9 C 91 % 1026,5 hPa 0,0 mm 2,9 km/h (1 Bft) NE 45 0 min 0 W/m 3,6 C 4,9 C 4,7 km/h (1 Bft)
13/01/2012 20:10 4,9 C 91 % 1026,4 hPa 0,0 mm 2,2 km/h (1 Bft) NE 45 0 min 0 W/m 3,6 C 4,9 C 4,0 km/h (1 Bft)
13/01/2012 20:20 4,8 C 91 % 1026,4 hPa 0,0 mm 5,4 km/h (2 Bft) NE 45 0 min 0 W/m 3,5 C 3,7 C 9,0 km/h (2 Bft)
13/01/2012 20:30 4,8 C 91 % 1026,3 hPa 0,0 mm 5,4 km/h (2 Bft) NE 45 0 min 0 W/m 3,5 C 3,7 C 10,1 km/h (2 Bft)
13/01/2012 20:40 4,8 C 91 % 1026,2 hPa 0,0 mm 2,2 km/h (1 Bft) NE 45 0 min 0 W/m 3,5 C 4,8 C 4,0 km/h (1 Bft)
13/01/2012 20:50 4,8 C 91 % 1026,2 hPa 0,0 mm 2,5 km/h (1 Bft) NE 45 0 min 0 W/m 3,5 C 4,8 C 4,0 km/h (1 Bft)
13/01/2012 21:00 4,6 C 91 % 1026,1 hPa 0,0 mm 6,8 km/h (2 Bft) N-NE 22 0 min 0 W/m 3,3 C 3,0 C 10,8 km/h (2 Bft)
13/01/2012 21:10 4,7 C 91 % 1026,1 hPa 0,0 mm 4,7 km/h (1 Bft) E-NE 67 0 min 0 W/m 3,4 C 3,9 C 4,7 km/h (1 Bft)
13/01/2012 21:20 4,8 C 91 % 1026,1 hPa 0,0 mm 8,6 km/h (2 Bft) N-NE 22 0 min 0 W/m 3,5 C 2,7 C 11,5 km/h (2 Bft)
13/01/2012 21:30 4,8 C 91 % 1026,2 hPa 0,0 mm 5,4 km/h (2 Bft) NE 45 0 min 0 W/m 3,5 C 3,7 C 6,5 km/h (2 Bft)
13/01/2012 21:40 4,8 C 91 % 1026,1 hPa 0,0 mm 5,4 km/h (2 Bft) NE 45 0 min 0 W/m 3,5 C 3,7 C 8,3 km/h (2 Bft)
13/01/2012 21:50 4,8 C 91 % 1026,0 hPa 0,0 mm 6,5 km/h (2 Bft) NE 45 0 min 0 W/m 3,5 C 3,3 C 10,1 km/h (2 Bft)
13/01/2012 22:00 4,7 C 91 % 1026,0 hPa 0,0 mm 4,3 km/h (1 Bft) NE 45 0 min 0 W/m 3,4 C 4,7 C 4,3 km/h (1 Bft)
13/01/2012 22:10 4,6 C 91 % 1025,8 hPa 0,0 mm 9,7 km/h (2 Bft) NE 45 0 min 0 W/m 3,3 C 2,2 C 11,9 km/h (2 Bft)
13/01/2012 22:20 4,6 C 91 % 1025,9 hPa 0,0 mm 4,3 km/h (1 Bft) NE 45 0 min 0 W/m 3,3 C 4,6 C 5,8 km/h (2 Bft)
13/01/2012 22:30 4,6 C 90 % 1025,8 hPa 0,0 mm 10,1 km/h (2 Bft) NE 45 0 min 0 W/m 3,1 C 2,2 C 11,2 km/h (2 Bft)
13/01/2012 22:40 4,5 C 90 % 1025,9 hPa 0,0 mm 8,3 km/h (2 Bft) NE 45 0 min 0 W/m 3,0 C 2,5 C 10,4 km/h (2 Bft)
13/01/2012 22:50 4,3 C 89 % 1025,8 hPa 0,0 mm 4,7 km/h (1 Bft) N-NE 22 0 min 0 W/m 2,7 C 3,4 C 5,4 km/h (2 Bft)
13/01/2012 23:00 4,1 C 88 % 1025,8 hPa 0,0 mm 6,1 km/h (2 Bft) N-NE 22 0 min 0 W/m 2,3 C 2,7 C 10,4 km/h (2 Bft)
13/01/2012 23:10 3,9 C 88 % 1025,8 hPa 0,0 mm 6,8 km/h (2 Bft) N 360 0 min 0 W/m 2,1 C 2,2 C 8,6 km/h (2 Bft)
13/01/2012 23:20 3,8 C 88 % 1025,8 hPa 0,0 mm 5,8 km/h (2 Bft) N-NE 22 0 min 0 W/m 2,0 C 2,4 C 8,3 km/h (2 Bft)
13/01/2012 23:30 3,5 C 88 % 1025,8 hPa 0,0 mm 4,0 km/h (1 Bft) NE 45 0 min 0 W/m 1,7 C 3,5 C 4,0 km/h (1 Bft)
13/01/2012 23:40 3,2 C 88 % 1025,8 hPa 0,0 mm 1,4 km/h (1 Bft) NE 45 0 min 0 W/m 1,4 C 3,2 C 2,9 km/h (1 Bft)
_ Min-Heure 05:20 23:40 23:40 - 14:30 - - - - 05:20 05:20 14:30
Minimum _ 1,4 C 88 % 1025,8 hPa - 0,0 km/h (0 Bft) - - - - 0,5 C 1,4 C 0,0 km/h (0 Bft)
_ Max-Heure 14:50 10:50 00:30 23:40 18:30 - - 17:20 23:40 14:40 14:50 19:00
Maximum _ 6,4 C 96 % 1030,3 hPa 0,0 mm 10,4 km/h
NE (2 Bft)
- - 2 min 0 W/m 5,7 C 6,4 C 14,0 km/h
NE (3 Bft)
Moyenne _ 3,9 C 94 % 1027,8 hPa #0,0 mm 2,0 km/h (1 Bft) NE - #1:44 h 0 W/m 2,9 C 3,6 C 3,1 km/h (1 Bft)
Saint Bonnet de Bellac- Haute Vienne - France